Location: Moscow
(55.7500°N, 37.5830°E)
Time: 06:37:51
(UTC+03:00)

Transit 2A - Pass Details

Date: 07 December 2021
Orbit: 591 x 967 km, 66.7° (Epoch: 17 January)

Event Time Altitude Azimuth Distance (km) Brightness Sun altitude
Exits shadow 05:18:03 30° 346° (NNW) 1,667 7.5 -27.3°
Maximum altitude 05:19:39 34° 14° (NNE) 1,550 7.6 -27.1°
Drops below altitude 10° 05:25:25 10° 78° (ENE) 2,703 9.8 -26.3°
Sets 05:28:14 0° 88° (E) 3,627 10.8 -25.9°
